Doylestown, PA

3:01 PM EDT on June 26, 2017 (GMT -0400)
Doylestown

Weather History for KDYL - July, 2013

Change the Weather History Date:

Tuesday, July 9, 2013

  Actual Average (KTTN) Record (KTTN)
Temperature  
Mean Temperature 75 °F -  
Max Temperature 86 °F 82 °F 106 °F (1936)
Min Temperature 66 °F 61 °F 53 °F (1963)
Cooling Degree Days 10    
Growing Degree Days 25 (Base 50)    
Moisture  
Dew Point 69 °F    
Average Humidity 79    
Maximum Humidity 100    
Minimum Humidity 61    
Precipitation  
Precipitation 0.01 in - - ()
Sea Level Pressure  
Sea Level Pressure 30.04 in    
Wind  
Wind Speed 2 mph (WSW)    
Max Wind Speed 8 mph    
Max Gust Speed 21 mph    
Visibility 10 miles    
Events Rain    
Averages and records for this station are not official NWS values.
T = Trace of Precipitation, MM = Missing Value Source: NWS Daily Summary

Daily Weather History Graph

Daily Weather History Graph

Search for Another Location

Airport or City:

Trip Planner

Search our weather history database for the weather conditions in past years. The results will help you decide how hot, cold, wet, or windy it might be!

Date:

Astronomy

Jul. 09, 2013 Rise Set
Actual Time 5:39 AM EDT 8:32 PM EDT
Civil Twilight 5:06 AM EDT 9:04 PM EDT
Nautical Twilight 4:25 AM EDT 9:45 PM EDT
Astronomical Twilight 3:38 AM EDT 10:32 PM EDT
Moon 7:01 AM EDT (7/9) 9:07 PM EDT (7/9)
Length of Visible Light 15h 57m
Length of Day
14h 52m
New Moon, 2% of the Moon is Illuminated
Jul 9
New Moon
Jul 15
First Quarter
Jul 22
Full
Jul 29
Last Quarter
Aug 6
New

Hourly Weather History & Observations

Time (EDT) Temp. Heat Index Dew Point Humidity Pressure Visibility Wind Dir Wind Speed Gust Speed Precip Events Conditions
12:54 AM 69.1 °F - 68.0 °F 96% 30.06 in 10.0 mi Calm Calm - N/A   Clear
1:54 AM 71.1 °F - 68.0 °F 90% 30.05 in 10.0 mi Calm Calm - N/A   Clear
2:54 AM 71.1 °F - 68.0 °F 90% 30.04 in 10.0 mi Calm Calm - N/A   Clear
3:54 AM 69.1 °F - 66.9 °F 93% 30.04 in 10.0 mi Calm Calm - N/A   Clear
4:54 AM 68.0 °F - 66.9 °F 96% 30.05 in 9.0 mi Calm Calm - N/A   Clear
5:54 AM 66.9 °F - 66.9 °F 100% 30.06 in 7.0 mi Calm Calm - N/A   Clear
6:54 AM 70.0 °F - 68.0 °F 93% 30.07 in 10.0 mi WSW 3.5 mph - N/A   Clear
7:54 AM 73.9 °F - 69.1 °F 85% 30.07 in 10.0 mi SW 4.6 mph - N/A   Clear
8:54 AM 80.1 °F 82.9 °F 69.1 °F 69% 30.07 in 10.0 mi WNW 3.5 mph - N/A   Clear
9:54 AM 82.0 °F 85.5 °F 69.1 °F 65% 30.06 in 10.0 mi NW 3.5 mph - N/A   Clear
10:54 AM 81.0 °F 83.8 °F 68.0 °F 65% 30.07 in 10.0 mi Variable 3.5 mph - N/A   Clear
11:54 AM 82.0 °F 85.5 °F 69.1 °F 65% 30.07 in 10.0 mi WSW 4.6 mph - N/A   Partly Cloudy
12:54 PM 81.0 °F 84.4 °F 70.0 °F 69% 30.06 in 10.0 mi SSW 4.6 mph - N/A   Clear
1:54 PM 80.1 °F 83.2 °F 70.0 °F 71% 30.06 in 10.0 mi South 5.8 mph - N/A   Clear
2:54 PM 84.9 °F 89.4 °F 70.0 °F 61% 30.03 in 10.0 mi SSW 5.8 mph - N/A   Partly Cloudy
3:54 PM 82.9 °F 87.0 °F 70.0 °F 65% 30.01 in 10.0 mi Variable 3.5 mph - N/A   Mostly Cloudy
4:54 PM 82.9 °F 86.5 °F 69.1 °F 63% 30.01 in 10.0 mi WSW 6.9 mph - N/A   Scattered Clouds
5:54 PM 80.1 °F 83.2 °F 70.0 °F 71% 30.01 in 10.0 mi West 8.1 mph 20.7 mph N/A   Mostly Cloudy
6:54 PM 79.0 °F - 72.0 °F 79% 30.00 in 10.0 mi West 3.5 mph - 0.01 in   Clear
7:54 PM 78.1 °F - 69.1 °F 74% 30.01 in 10.0 mi SW 3.5 mph - N/A   Overcast
8:54 PM 75.0 °F - 70.0 °F 84% 30.01 in 10.0 mi South 3.5 mph - N/A   Mostly Cloudy
9:54 PM 75.0 °F - 70.0 °F 84% 30.03 in 10.0 mi Calm Calm - 0.00 in Rain Light Rain
10:54 PM 75.9 °F - 69.1 °F 79% 30.02 in 10.0 mi Calm Calm - 0.00 in   Mostly Cloudy
11:54 PM 73.9 °F - 70.0 °F 87% 30.01 in 10.0 mi Calm Calm - N/A   Mostly Cloudy